Wind_Speed
10 14 16 14 11 14 17 18 18 15 13 14 16 19 19 22 27 30 29 24 23 24 26 28 30 33 34 32 31 33 30 29 28 27 28 29 28 28
9 15 17 18 18 17 15 19 21 18 19 19 22 20 22 22 21 23 28 27 26 28 29 25 25 25 28 33 35 35 35 34 35 34 33 33 32 32
11 13 17 20 22 22 21 20 23 25 24 24 26 24 24 27 25 22 23 25 27 30 29 29 27 27 29 32 33 33 36 37 35 35 36 38 39 38
12 16 17 20 24 25 23 21 22 23 23 25 27 29 31 31 30 29 27 25 26 28 32 33 32 33 32 32 36 38 36 35 37 38 38 38 42 43
13 14 17 19 24 23 24 23 23 23 22 24 28 29 31 33 36 35 34 34 34 36 33 33 34 39 42 39 37 39 40 36 36 38 41 41 41 42
12 14 18 19 25 27 25 23 21 22 22 25 29 32 33 34 37 39 41 41 39 38 39 37 40 43 46 41 40 44 42 44 44 44 45 45 45 45
15 16 17 19 23 25 21 20 20 24 27 28 31 33 34 39 41 42 44 44 42 46 45 48 49 45 43 43 44 44 43 43 43 40 42 45 46 47
21 20 19 22 25 22 20 21 24 27 28 29 31 35 38 41 43 44 45 47 43 41 43 47 50 46 45 45 45 45 45 45 46 48 48 46 47 47
27 26 23 25 25 23 23 26 27 27 29 31 34 37 40 44 47 47 46 45 44 47 43 42 46 49 50 50 52 51 49 47 46 45 46 52 52 52
33 31 29 27 31 26 25 28 27 29 30 34 39 42 43 45 43 41 43 44 44 44 45 45 42 42 44 45 46 46 45 43 42 43 45 45 44 43
37 38 36 33 30 27 28 32 33 33 35 38 42 43 44 44 39 40 42 42 39 40 42 41 41 43 45 45 46 47 45 45 46 46 45 45 45 45
43 43 40 38 33 30 31 34 35 36 37 41 43 43 42 38 38 37 37 37 38 37 39 41 43 45 46 43 41 42 44 45 44 44 45 45 44 45
45 46 46 32 34 36 33 35 35 37 40 42 42 40 38 35 34 35 34 35 37 38 41 41 43 43 42 40 34 36 37 39 40 41 42 42 43 45
49 48 54 40 39 41 38 36 34 38 39 40 40 36 32 34 34 32 33 36 37 40 40 41 41 40 37 35 32 31 33 35 36 38 38 40 42 44
54 44 38 38 41 44 40 33 33 40 39 38 36 31 31 32 30 30 33 36 38 39 40 40 41 39 37 35 33 33 34 33 35 36 37 38 40 43
50 47 42 40 42 47 45 30 34 38 36 35 31 29 28 27 28 29 33 36 39 40 41 40 40 40 37 37 37 36 38 37 36 39 41 42 44 47
41 36 31 35 38 30 27 29 33 36 34 32 28 29 26 24 25 30 32 35 39 40 39 40 41 40 39 38 37 38 38 37 37 38 40 40 44 48
21 22 33 37 37 33 34 32 33 35 30 30 27 28 24 23 26 30 31 34 38 40 38 40 39 39 36 35 39 40 41 41 40 40 41 40 37 40
26 26 31 37 34 33 32 33 33 30 28 27 26 24 21 23 26 29 31 34 37 39 38 39 39 36 34 34 36 40 42 40 35 33 34 33 33 35
25 28 29 28 28 29 34 33 29 27 27 25 23 21 21 22 26 28 30 34 36 37 37 37 37 36 35 35 36 39 41 36 32 30 30 30 32 33
29 25 27 30 34 36 33 28 25 26 27 24 21 20 19 22 26 27 30 32 34 36 36 36 36 36 35 36 38 38 38 37 36 35 35 35 30 28
19 25 29 32 31 29 28 25 24 26 26 22 20 19 20 22 25 25 29 30 32 34 36 35 34 35 36 36 37 38 35 32 34 36 39 41 40 36
30 32 33 31 29 28 26 23 24 26 24 22 20 20 21 22 24 25 27 28 30 32 35 36 34 34 36 37 36 37 35 32 29 32 37 41 44 46
Wind_Direction
352 17 11 1 351 348 346 342 345 339 323 327 318 305 307 307 300 287 293 285 283 288 292 290 286 280 271 267 266 265 262 260 259 257 253 252 251 248
326 347 358 6 355 346 341 334 342 339 336 335 337 330 330 313 306 295 285 285 283 289 292 290 287 284 274 271 272 270 269 267 263 259 257 252 249 248
327 341 349 358 354 350 349 345 346 345 345 341 336 332 326 323 319 306 293 284 279 283 288 289 293 291 281 276 273 272 272 271 267 263 261 260 257 257
325 335 347 351 354 351 343 343 345 346 341 336 331 327 324 320 313 311 306 289 282 284 285 285 289 293 287 282 278 276 270 265 264 264 263 258 259 257
318 328 334 342 346 351 346 339 340 341 337 329 321 318 315 314 309 307 303 298 295 296 289 293 291 289 290 288 279 272 270 265 272 273 267 262 260 259
305 319 326 335 336 344 338 337 340 333 327 320 314 313 310 309 307 304 301 298 291 292 291 290 291 293 295 289 279 286 286 280 279 274 270 265 262 257
313 312 311 325 331 339 337 335 330 320 311 313 309 307 307 305 306 306 304 302 294 294 292 292 299 297 292 286 285 285 286 286 278 265 264 266 266 265
307 307 309 315 324 332 331 327 320 312 312 314 314 310 308 307 308 306 304 304 303 300 299 301 300 300 297 293 291 289 285 281 277 269 267 262 262 262
297 306 308 308 315 319 315 313 311 312 314 319 318 309 310 312 310 306 307 306 300 303 303 303 299 296 292 291 292 291 287 284 279 270 270 266 263 262
293 298 303 304 310 312 312 308 308 309 317 320 312 308 310 308 306 307 306 306 304 307 304 304 300 298 294 290 287 284 284 282 279 278 275 270 264 260
285 292 295 300 308 317 313 310 309 310 317 313 308 309 310 309 310 308 308 309 309 308 306 306 305 304 301 296 291 287 283 280 278 276 274 273 271 270
279 290 294 291 300 309 309 309 308 306 306 307 309 310 310 309 311 312 312 312 311 311 310 310 310 308 305 305 300 291 286 283 278 274 272 271 269 266
275 280 293 286 291 298 303 305 306 305 304 307 309 311 311 313 316 317 315 316 316 315 314 312 313 314 311 308 306 299 293 285 282 281 279 278 277 274
266 277 282 286 290 294 295 299 302 300 304 306 310 312 314 317 320 318 318 319 320 320 316 315 317 318 316 309 308 305 298 292 288 284 282 280 277 276
261 258 279 277 281 292 289 295 300 299 303 306 312 311 314 319 318 319 322 324 325 321 316 316 319 320 316 312 307 299 294 292 291 288 283 278 275 271
254 262 276 287 288 301 300 292 297 299 302 308 306 308 315 316 319 324 329 328 327 323 319 318 320 320 318 315 312 306 301 296 288 282 278 275 273 272
240 259 274 281 290 290 299 295 296 296 303 304 302 308 313 317 321 328 330 329 326 324 321 319 321 320 318 315 313 312 310 306 302 296 286 280 277 273
259 269 277 289 289 286 294 294 294 296 301 300 303 309 314 315 326 328 329 330 325 325 323 323 324 322 320 319 319 318 318 315 309 302 296 290 285 281
280 282 278 281 291 286 285 291 292 295 295 298 302 308 309 318 325 328 330 330 326 327 327 328 327 326 326 323 320 320 320 318 315 310 305 301 293 286
266 279 286 287 288 288 287 286 290 292 294 296 299 302 307 320 326 328 330 330 328 329 331 331 331 330 328 328 330 331 326 326 322 319 315 310 305 300
264 278 283 284 287 282 280 285 288 289 291 292 295 300 310 320 322 327 329 329 329 332 334 334 335 335 331 332 337 339 335 332 331 330 327 325 320 307
282 284 289 285 277 277 280 287 283 285 288 292 295 297 308 314 321 324 325 327 328 334 337 337 337 338 337 335 340 344 342 340 337 336 335 332 332 333
282 282 281 276 273 278 283 279 277 284 286 290 289 289 302 310 319 314 321 326 328 333 338 341 341 340 342 340 342 347 345 346 346 341 344 341 336 337
Height
5906 5903 5901 5898 5896 5895 5893 5891 5889 5887 5886 5883 5880 5878 5876 5873 5870 5868 5867 5867 5867 5866 5864 5863 5862 5861 5860 5860 5861 5860 5860 5861 5860 5860 5861 5862 5864 5865
5903 5901 5899 5896 5893 5891 5888 5886 5884 5883 5881 5880 5878 5875 5872 5870 5866 5863 5860 5859 5859 5858 5858 5856 5854 5852 5851 5851 5850 5850 5849 5849 5850 5851 5851 5852 5853 5854
5901 5899 5897 5894 5891 5889 5886 5883 5881 5879 5877 5875 5873 5871 5868 5865 5862 5859 5858 5855 5853 5851 5849 5848 5847 5844 5842 5840 5839 5838 5837 5837 5837 5838 5839 5841 5842 5844
5898 5896 5894 5891 5888 5886 5884 5882 5879 5877 5875 5873 5870 5866 5863 5861 5859 5856 5854 5851 5848 5844 5841 5837 5836 5835 5833 5831 5829 5827 5826 5825 5826 5826 5826 5827 5828 5830
5895 5893 5890 5888 5885 5882 5880 5878 5876 5874 5872 5869 5865 5861 5857 5854 5851 5849 5845 5841 5838 5834 5831 5829 5827 5824 5821 5819 5818 5816 5815 5814 5813 5813 5813 5813 5813 5816
5892 5889 5887 5884 5882 5880 5877 5874 5872 5869 5866 5863 5860 5855 5851 5847 5844 5840 5835 5831 5829 5824 5819 5816 5813 5811 5809 5807 5805 5803 5801 5801 5801 5801 5800 5800 5801 5802
5887 5885 5882 5880 5878 5876 5873 5870 5866 5863 5860 5857 5853 5848 5843 5838 5835 5832 5828 5822 5818 5813 5809 5805 5801 5798 5795 5793 5791 5788 5786 5785 5784 5784 5785 5786 5786 5787
5882 5881 5878 5875 5872 5871 5867 5864 5861 5856 5852 5849 5845 5840 5834 5829 5825 5821 5815 5811 5807 5802 5797 5792 5787 5783 5779 5776 5774 5771 5769 5768 5768 5768 5768 5768 5770 5770
5878 5875 5875 5870 5868 5865 5861 5856 5852 5848 5844 5838 5834 5829 5824 5818 5815 5811 5805 5799 5796 5791 5786 5783 5777 5773 5766 5762 5758 5755 5752 5749 5749 5748 5749 5750 5750 5750
5871 5869 5868 5866 5862 5859 5854 5850 5845 5839 5833 5829 5826 5821 5815 5810 5804 5798 5792 5788 5784 5778 5772 5770 5764 5760 5755 5748 5744 5740 5737 5735 5733 5732 5731 5731 5732 5732
5864 5861 5860 5858 5856 5850 5848 5843 5839 5832 5827 5822 5817 5812 5805 5799 5793 5787 5782 5778 5772 5766 5760 5758 5752 5747 5742 5734 5728 5724 5722 5720 5718 5717 5717 5716 5715 5714
5856 5854 5852 5849 5845 5842 5839 5834 5829 5822 5817 5812 5807 5801 5795 5789 5783 5778 5774 5768 5762 5756 5751 5747 5740 5734 5729 5720 5713 5708 5706 5704 5703 5703 5702 5700 5700 5701
5847 5845 5841 5840 5838 5833 5829 5824 5818 5813 5808 5803 5797 5790 5785 5780 5776 5769 5764 5759 5752 5746 5741 5736 5731 5723 5715 5708 5704 5698 5694 5691 5689 5687 5686 5686 5685 5684
5835 5835 5835 5832 5829 5825 5820 5814 5807 5802 5798 5794 5787 5781 5776 5772 5767 5761 5755 5750 5743 5736 5731 5727 5721 5713 5706 5700 5695 5691 5685 5681 5679 5677 5675 5673 5671 5669
5819 5825 5825 5822 5819 5813 5808 5804 5798 5793 5789 5784 5778 5773 5768 5763 5758 5752 5747 5741 5733 5726 5721 5717 5712 5704 5697 5690 5686 5681 5677 5675 5669 5666 5663 5661 5658 5655
5800 5807 5809 5807 5805 5800 5795 5791 5788 5785 5779 5775 5769 5764 5760 5755 5750 5743 5737 5732 5725 5719 5712 5707 5702 5694 5688 5681 5675 5671 5665 5662 5659 5654 5651 5648 5644 5640
5783 5792 5796 5796 5792 5788 5785 5780 5778 5775 5770 5765 5760 5756 5751 5747 5743 5737 5730 5725 5719 5714 5706 5699 5693 5686 5678 5672 5667 5660 5654 5649 5644 5639 5635 5632 5628 5623
5771 5778 5786 5785 5781 5778 5777 5771 5768 5766 5761 5758 5752 5749 5744 5740 5734 5730 5724 5718 5714 5708 5701 5694 5686 5678 5671 5664 5655 5650 5643 5637 5631 5624 5618 5614 5614 5607
5767 5774 5776 5772 5769 5766 5765 5762 5759 5756 5753 5748 5744 5740 5736 5732 5727 5723 5717 5712 5709 5702 5694 5687 5679 5672 5665 5659 5651 5642 5635 5626 5620 5614 5607 5603 5599 5596
5759 5762 5761 5759 5755 5755 5756 5753 5749 5746 5744 5740 5736 5733 5729 5724 5721 5716 5710 5707 5704 5696 5687 5680 5673 5665 5659 5652 5645 5635 5624 5617 5610 5605 5600 5595 5589 5583
5746 5747 5747 5745 5742 5746 5745 5741 5739 5737 5735 5731 5727 5724 5721 5717 5715 5710 5705 5704 5699 5692 5683 5675 5668 5660 5653 5645 5638 5629 5618 5608 5600 5595 5589 5583 5578 5573
5730 5733 5734 5734 5733 5733 5732 5730 5729 5728 5725 5721 5719 5717 5713 5711 5709 5704 5702 5699 5695 5687 5679 5671 5663 5656 5648 5641 5633 5625 5616 5608 5597 5589 5580 5572 5563 5556
5724 5725 5723 5723 5721 5721 5720 5720 5720 5718 5715 5712 5710 5708 5707 5705 5701 5700 5698 5694 5690 5683 5676 5668 5660 5652 5645 5636 5629 5621 5613 5605 5598 5590 5581 5571 5560 5551